Time,TemperatureF,DewpointF,PressureIn,WindDirection,WindDirectionDegrees,WindSpeedMPH,WindSpeedGustMPH,Humidity,HourlyPrecipIn,Conditions,Clouds,dailyrainin,SoftwareType,DateUTC
2013-11-30 00:01:00,53.8,40.7,27.51,NNW,338,0.0,0.4,61,0.00,,,0.00,WUHU216HW,2013-11-30 07:01:00,
2013-11-30 00:06:00,53.6,40.5,27.51,NNW,338,0.0,0.2,61,0.00,,,0.00,WUHU216HW,2013-11-30 07:06:00,
2013-11-30 00:11:00,53.6,41.3,27.51,NNW,338,0.2,0.9,63,0.00,,,0.00,WUHU216HW,2013-11-30 07:11:00,
2013-11-30 00:16:00,53.6,41.0,27.51,NNW,338,0.0,1.1,62,0.00,,,0.00,WUHU216HW,2013-11-30 07:16:00,
2013-11-30 00:21:00,53.6,41.0,27.51,NNW,338,0.2,1.1,62,0.00,,,0.00,WUHU216HW,2013-11-30 07:21:00,
2013-11-30 00:26:00,53.6,41.0,27.51,NNW,338,0.4,1.1,62,0.00,,,0.00,WUHU216HW,2013-11-30 07:26:00,
2013-11-30 00:31:00,53.6,41.0,27.51,NNW,338,0.0,0.9,62,0.00,,,0.00,WUHU216HW,2013-11-30 07:31:00,
2013-11-30 00:36:00,53.6,40.5,27.51,NNW,338,0.0,0.4,61,0.00,,,0.00,WUHU216HW,2013-11-30 07:36:00,
2013-11-30 00:41:00,53.6,40.5,27.51,NNW,338,0.0,0.9,61,0.00,,,0.00,WUHU216HW,2013-11-30 07:41:00,
2013-11-30 00:46:00,53.6,40.5,27.51,NNW,338,0.0,0.9,61,0.00,,,0.00,WUHU216HW,2013-11-30 07:46:00,
2013-11-30 00:51:00,53.5,40.3,27.51,NNW,338,0.0,0.0,61,0.00,,,0.00,WUHU216HW,2013-11-30 07:51:00,
2013-11-30 00:56:00,53.5,40.3,27.51,NNW,338,0.0,0.0,61,0.00,,,0.00,WUHU216HW,2013-11-30 07:56:00,
2013-11-30 01:01:00,53.3,40.6,27.51,NNW,338,0.0,0.0,62,0.00,,,0.00,WUHU216HW,2013-11-30 08:01:00,
2013-11-30 01:06:00,53.3,40.1,27.51,NNW,338,0.4,1.1,61,0.00,,,0.00,WUHU216HW,2013-11-30 08:06:00,
2013-11-30 01:11:00,53.1,40.0,27.50,NW,315,0.4,1.1,61,0.00,,,0.00,WUHU216HW,2013-11-30 08:11:00,
2013-11-30 01:16:00,53.1,40.0,27.50,NW,315,0.0,1.1,61,0.00,,,0.00,WUHU216HW,2013-11-30 08:16:00,
2013-11-30 01:21:00,52.9,40.2,27.50,NW,315,0.0,0.9,62,0.00,,,0.00,WUHU216HW,2013-11-30 08:21:00,
2013-11-30 01:26:00,52.9,40.2,27.50,NW,315,0.0,0.7,62,0.00,,,0.00,WUHU216HW,2013-11-30 08:26:00,
2013-11-30 01:31:00,52.9,39.8,27.50,NW,315,0.7,1.1,61,0.00,,,0.00,WUHU216HW,2013-11-30 08:31:00,
2013-11-30 01:36:00,52.9,39.8,27.50,NNW,338,0.0,1.3,61,0.00,,,0.00,WUHU216HW,2013-11-30 08:36:00,
2013-11-30 01:41:00,52.9,39.8,27.50,NNW,338,0.0,1.3,61,0.00,,,0.00,WUHU216HW,2013-11-30 08:41:00,
2013-11-30 01:46:00,52.7,39.6,27.51,NNW,338,0.0,0.7,61,0.00,,,0.00,WUHU216HW,2013-11-30 08:46:00,
2013-11-30 01:51:00,52.6,39.5,27.51,NNW,338,0.0,0.2,61,0.00,,,0.00,WUHU216HW,2013-11-30 08:51:00,
2013-11-30 01:56:00,52.6,39.5,27.51,NNW,338,0.0,0.4,61,0.00,,,0.00,WUHU216HW,2013-11-30 08:56:00,
2013-11-30 02:01:00,52.4,39.7,27.51,NNW,338,0.7,0.7,62,0.00,,,0.00,WUHU216HW,2013-11-30 09:01:00,
2013-11-30 02:06:00,52.2,39.5,27.51,NNW,338,0.0,0.7,62,0.00,,,0.00,WUHU216HW,2013-11-30 09:06:00,
2013-11-30 02:11:00,52.2,40.0,27.51,NNW,338,0.4,1.1,63,0.00,,,0.00,WUHU216HW,2013-11-30 09:11:00,
2013-11-30 02:16:00,52.0,39.8,27.51,NNW,338,0.4,1.3,63,0.00,,,0.00,WUHU216HW,2013-11-30 09:16:00,
2013-11-30 02:21:00,51.8,39.6,27.51,North,0,0.4,1.3,63,0.00,,,0.00,WUHU216HW,2013-11-30 09:21:00,
2013-11-30 02:26:00,51.8,39.6,27.51,North,0,0.2,1.1,63,0.00,,,0.00,WUHU216HW,2013-11-30 09:26:00,
2013-11-30 02:31:00,51.7,39.4,27.51,North,0,0.7,1.1,63,0.00,,,0.00,WUHU216HW,2013-11-30 09:31:00,
2013-11-30 02:36:00,51.5,39.7,27.51,North,0,0.0,1.1,64,0.00,,,0.00,WUHU216HW,2013-11-30 09:36:00,
2013-11-30 02:41:00,51.5,39.7,27.51,North,0,0.2,0.4,64,0.00,,,0.00,WUHU216HW,2013-11-30 09:41:00,
2013-11-30 02:46:00,51.5,39.7,27.51,NNW,338,0.7,0.9,64,0.00,,,0.00,WUHU216HW,2013-11-30 09:46:00,
2013-11-30 02:51:00,51.5,39.7,27.51,North,0,0.4,0.9,64,0.00,,,0.00,WUHU216HW,2013-11-30 09:51:00,
2013-11-30 02:56:00,51.5,39.7,27.51,North,0,0.4,0.9,64,0.00,,,0.00,WUHU216HW,2013-11-30 09:56:00,
2013-11-30 03:01:00,51.5,39.7,27.51,North,0,0.0,0.4,64,0.00,,,0.00,WUHU216HW,2013-11-30 10:01:00,
2013-11-30 03:06:00,51.5,39.7,27.51,North,0,0.0,0.9,64,0.00,,,0.00,WUHU216HW,2013-11-30 10:06:00,
2013-11-30 03:11:00,51.5,39.7,27.50,NW,315,0.0,0.9,64,0.00,,,0.00,WUHU216HW,2013-11-30 10:11:00,
2013-11-30 03:16:00,51.5,39.7,27.50,NNW,338,0.7,0.9,64,0.00,,,0.00,WUHU216HW,2013-11-30 10:16:00,
2013-11-30 03:21:00,51.5,39.7,27.50,NNW,338,0.0,0.7,64,0.00,,,0.00,WUHU216HW,2013-11-30 10:21:00,
2013-11-30 03:26:00,51.5,39.7,27.50,NNW,338,0.0,0.7,64,0.00,,,0.00,WUHU216HW,2013-11-30 10:26:00,
2013-11-30 03:31:00,51.3,39.5,27.50,NNW,338,0.2,0.7,64,0.00,,,0.00,WUHU216HW,2013-11-30 10:31:00,
2013-11-30 03:36:00,51.5,39.7,27.50,NNW,338,1.1,1.1,64,0.00,,,0.00,WUHU216HW,2013-11-30 10:36:00,
2013-11-30 03:41:00,51.5,39.7,27.50,NW,315,0.0,1.3,64,0.00,,,0.00,WUHU216HW,2013-11-30 10:41:00,
2013-11-30 03:46:00,51.5,39.7,27.50,NNW,338,0.0,1.3,64,0.00,,,0.00,WUHU216HW,2013-11-30 10:46:00,
2013-11-30 03:51:00,51.3,39.5,27.49,NNW,338,0.4,0.4,64,0.00,,,0.00,WUHU216HW,2013-11-30 10:51:00,
2013-11-30 03:56:00,51.5,39.7,27.49,NNW,338,0.0,0.7,64,0.00,,,0.00,WUHU216HW,2013-11-30 10:56:00,
2013-11-30 04:01:00,51.3,39.5,27.49,NNW,338,0.0,0.7,64,0.00,,,0.00,WUHU216HW,2013-11-30 11:01:00,
2013-11-30 04:06:00,51.3,39.5,27.49,NW,315,0.0,0.7,64,0.00,,,0.00,WUHU216HW,2013-11-30 11:06:00,
2013-11-30 04:11:00,51.3,39.5,27.50,NNW,338,0.0,0.7,64,0.00,,,0.00,WUHU216HW,2013-11-30 11:11:00,
2013-11-30 04:16:00,51.1,39.3,27.50,NNW,338,0.4,0.7,64,0.00,,,0.00,WUHU216HW,2013-11-30 11:16:00,
2013-11-30 04:21:00,51.1,39.3,27.50,NNW,338,0.0,0.7,64,0.00,,,0.00,WUHU216HW,2013-11-30 11:21:00,
2013-11-30 04:26:00,50.9,39.2,27.49,NNW,338,0.0,0.7,64,0.00,,,0.00,WUHU216HW,2013-11-30 11:26:00,
2013-11-30 04:31:00,50.8,39.4,27.49,NNW,338,0.0,0.4,65,0.00,,,0.00,WUHU216HW,2013-11-30 11:31:00,
2013-11-30 04:36:00,50.8,39.4,27.48,NNW,338,0.9,0.9,65,0.00,,,0.00,WUHU216HW,2013-11-30 11:36:00,
2013-11-30 04:41:00,50.6,39.3,27.48,NW,315,0.0,1.1,65,0.00,,,0.00,WUHU216HW,2013-11-30 11:41:00,
2013-11-30 04:46:00,50.6,39.3,27.48,NW,315,0.0,1.1,65,0.00,,,0.00,WUHU216HW,2013-11-30 11:46:00,
2013-11-30 04:51:00,50.4,38.6,27.48,NW,315,0.0,0.0,64,0.00,,,0.00,WUHU216HW,2013-11-30 11:51:00,
2013-11-30 04:56:00,50.2,38.9,27.48,NW,315,0.2,0.2,65,0.00,,,0.00,WUHU216HW,2013-11-30 11:56:00,
2013-11-30 05:01:00,50.2,38.9,27.48,NNW,338,0.0,0.9,65,0.00,,,0.00,WUHU216HW,2013-11-30 12:01:00,
2013-11-30 05:06:00,50.2,38.9,27.48,NNW,338,0.0,0.9,65,0.00,,,0.00,WUHU216HW,2013-11-30 12:06:00,
2013-11-30 05:11:00,50.2,38.9,27.49,NW,315,0.0,0.9,65,0.00,,,0.00,WUHU216HW,2013-11-30 12:11:00,
2013-11-30 05:16:00,50.0,38.7,27.49,NNW,338,0.0,0.9,65,0.00,,,0.00,WUHU216HW,2013-11-30 12:16:00,
2013-11-30 05:21:00,50.0,38.7,27.49,NNW,338,0.0,1.1,65,0.00,,,0.00,WUHU216HW,2013-11-30 12:21:00,
2013-11-30 05:26:00,50.0,38.7,27.49,North,0,0.0,1.1,65,0.00,,,0.00,WUHU216HW,2013-11-30 12:26:00,
2013-11-30 05:31:00,50.0,38.7,27.49,North,0,0.0,0.4,65,0.00,,,0.00,WUHU216HW,2013-11-30 12:31:00,
2013-11-30 05:36:00,50.0,38.7,27.49,North,0,0.0,0.0,65,0.00,,,0.00,WUHU216HW,2013-11-30 12:36:00,
2013-11-30 05:41:00,50.0,38.7,27.49,North,0,0.0,0.4,65,0.00,,,0.00,WUHU216HW,2013-11-30 12:41:00,
2013-11-30 05:46:00,49.9,38.5,27.49,North,0,0.0,0.4,65,0.00,,,0.00,WUHU216HW,2013-11-30 12:46:00,
2013-11-30 05:51:00,49.9,38.9,27.49,North,0,0.0,0.4,66,0.00,,,0.00,WUHU216HW,2013-11-30 12:51:00,
2013-11-30 05:56:00,49.9,38.9,27.49,North,0,0.0,0.4,66,0.00,,,0.00,WUHU216HW,2013-11-30 12:56:00,
2013-11-30 06:01:00,49.7,38.8,27.49,NNW,338,0.0,0.4,66,0.00,,,0.00,WUHU216HW,2013-11-30 13:01:00,
2013-11-30 06:06:00,49.7,38.3,27.50,NNW,338,0.0,0.7,65,0.00,,,0.00,WUHU216HW,2013-11-30 13:06:00,
2013-11-30 06:11:00,49.7,38.8,27.50,WSW,248,0.0,0.7,66,0.00,,,0.00,WUHU216HW,2013-11-30 13:11:00,
2013-11-30 06:16:00,49.3,38.4,27.50,WSW,248,0.0,0.4,66,0.00,,,0.00,WUHU216HW,2013-11-30 13:16:00,
2013-11-30 06:21:00,49.1,38.3,27.50,WSW,248,0.0,0.0,66,0.00,,,0.00,WUHU216HW,2013-11-30 13:21:00,
2013-11-30 06:26:00,49.0,38.4,27.51,WSW,248,0.0,0.0,67,0.00,,,0.00,WUHU216HW,2013-11-30 13:26:00,
2013-11-30 06:31:00,48.8,38.3,27.51,WSW,248,0.0,0.0,67,0.00,,,0.00,WUHU216HW,2013-11-30 13:31:00,
2013-11-30 06:36:00,49.0,38.4,27.51,NNW,338,0.0,0.2,67,0.00,,,0.00,WUHU216HW,2013-11-30 13:36:00,
2013-11-30 06:41:00,49.1,38.6,27.51,NNW,338,0.0,0.9,67,0.00,,,0.00,WUHU216HW,2013-11-30 13:41:00,
2013-11-30 06:46:00,49.3,38.8,27.51,North,0,0.0,0.9,67,0.00,,,0.00,WUHU216HW,2013-11-30 13:46:00,
2013-11-30 06:51:00,49.5,39.0,27.51,NNW,338,0.0,0.7,67,0.00,,,0.00,WUHU216HW,2013-11-30 13:51:00,
2013-11-30 06:56:00,49.3,38.8,27.51,NNW,338,0.0,0.7,67,0.00,,,0.00,WUHU216HW,2013-11-30 13:56:00,
2013-11-30 07:01:00,49.3,38.8,27.52,NNW,338,0.0,0.4,67,0.00,,,0.00,WUHU216HW,2013-11-30 14:01:00,
2013-11-30 07:06:00,49.3,38.8,27.52,NW,315,0.7,0.7,67,0.00,,,0.00,WUHU216HW,2013-11-30 14:06:00,
2013-11-30 07:11:00,49.3,38.8,27.52,WNW,293,0.0,1.3,67,0.00,,,0.00,WUHU216HW,2013-11-30 14:11:00,
2013-11-30 07:16:00,49.3,38.8,27.52,WNW,293,0.9,1.3,67,0.00,,,0.00,WUHU216HW,2013-11-30 14:16:00,
2013-11-30 07:21:00,49.1,38.6,27.52,WNW,293,0.4,1.3,67,0.00,,,0.00,WUHU216HW,2013-11-30 14:21:00,
2013-11-30 07:26:00,49.1,38.6,27.52,WNW,293,0.4,1.3,67,0.00,,,0.00,WUHU216HW,2013-11-30 14:26:00,
2013-11-30 07:31:00,49.1,39.0,27.51,WNW,293,0.0,1.1,68,0.00,,,0.00,WUHU216HW,2013-11-30 14:31:00,
2013-11-30 07:36:00,49.1,38.6,27.51,WNW,293,0.0,1.1,67,0.00,,,0.00,WUHU216HW,2013-11-30 14:36:00,
2013-11-30 07:41:00,49.1,38.6,27.51,WNW,293,0.0,1.3,67,0.00,,,0.00,WUHU216HW,2013-11-30 14:41:00,
2013-11-30 07:46:00,49.3,38.8,27.51,NW,315,0.0,1.3,67,0.00,,,0.00,WUHU216HW,2013-11-30 14:46:00,
2013-11-30 07:51:00,49.3,38.8,27.51,NW,315,0.7,0.9,67,0.00,,,0.00,WUHU216HW,2013-11-30 14:51:00,
2013-11-30 07:56:00,49.5,39.0,27.51,NW,315,0.0,0.9,67,0.00,,,0.00,WUHU216HW,2013-11-30 14:56:00,
2013-11-30 08:01:00,49.7,39.2,27.52,NW,315,0.0,0.9,67,0.00,,,0.00,WUHU216HW,2013-11-30 15:01:00,
2013-11-30 08:06:00,49.9,39.3,27.52,NW,315,0.0,0.0,67,0.00,,,0.00,WUHU216HW,2013-11-30 15:06:00,
2013-11-30 08:11:00,50.0,39.5,27.51,NW,315,0.0,0.7,67,0.00,,,0.00,WUHU216HW,2013-11-30 15:11:00,
2013-11-30 08:16:00,50.4,39.9,27.52,NW,315,0.0,0.7,67,0.00,,,0.00,WUHU216HW,2013-11-30 15:16:00,
2013-11-30 08:21:00,50.8,40.2,27.52,NW,315,0.0,0.4,67,0.00,,,0.00,WUHU216HW,2013-11-30 15:21:00,
2013-11-30 08:26:00,51.3,40.7,27.52,NNW,338,0.7,0.9,67,0.00,,,0.00,WUHU216HW,2013-11-30 15:26:00,
2013-11-30 08:31:00,51.8,41.2,27.52,North,0,0.0,0.9,67,0.00,,,0.00,WUHU216HW,2013-11-30 15:31:00,
2013-11-30 08:36:00,52.2,41.6,27.52,NNW,338,0.4,0.9,67,0.00,,,0.00,WUHU216HW,2013-11-30 15:36:00,
2013-11-30 08:41:00,52.9,41.9,27.52,North,0,0.4,0.9,66,0.00,,,0.00,WUHU216HW,2013-11-30 15:41:00,
2013-11-30 08:46:00,53.3,41.8,27.52,North,0,0.9,1.3,65,0.00,,,0.00,WUHU216HW,2013-11-30 15:46:00,
2013-11-30 08:51:00,53.5,41.6,27.52,NNE,23,0.7,1.8,64,0.00,,,0.00,WUHU216HW,2013-11-30 15:51:00,
2013-11-30 08:56:00,53.6,41.3,27.52,NNW,338,1.6,1.8,63,0.00,,,0.00,WUHU216HW,2013-11-30 15:56:00,
2013-11-30 09:01:00,54.0,41.7,27.52,North,0,1.6,1.8,63,0.00,,,0.00,WUHU216HW,2013-11-30 16:01:00,
2013-11-30 09:06:00,54.4,41.6,27.52,North,0,0.9,2.9,62,0.00,,,0.00,WUHU216HW,2013-11-30 16:06:00,
2013-11-30 09:11:00,54.7,42.0,27.52,North,0,0.9,2.9,62,0.00,,,0.00,WUHU216HW,2013-11-30 16:11:00,
2013-11-30 09:16:00,55.4,42.2,27.52,North,0,1.8,2.2,61,0.00,,,0.00,WUHU216HW,2013-11-30 16:16:00,
2013-11-30 09:21:00,56.0,42.8,27.52,NNW,338,0.7,2.2,61,0.00,,,0.00,WUHU216HW,2013-11-30 16:21:00,
2013-11-30 09:26:00,56.7,42.6,27.52,NE,45,1.3,3.1,59,0.00,,,0.00,WUHU216HW,2013-11-30 16:26:00,
2013-11-30 09:31:00,57.2,43.1,27.52,NW,315,2.2,3.1,59,0.00,,,0.00,WUHU216HW,2013-11-30 16:31:00,
2013-11-30 09:36:00,57.8,43.1,27.52,North,0,2.0,3.1,58,0.00,,,0.00,WUHU216HW,2013-11-30 16:36:00,
2013-11-30 09:41:00,58.0,42.3,27.52,SSW,203,1.1,3.4,56,0.00,,,0.00,WUHU216HW,2013-11-30 16:41:00,
2013-11-30 09:46:00,58.3,42.2,27.52,North,0,1.1,3.4,55,0.00,,,0.00,WUHU216HW,2013-11-30 16:46:00,
2013-11-30 09:51:00,58.5,42.4,27.52,WNW,293,1.1,2.5,55,0.00,,,0.00,WUHU216HW,2013-11-30 16:51:00,
2013-11-30 09:56:00,59.0,42.4,27.52,North,0,1.1,2.5,54,0.00,,,0.00,WUHU216HW,2013-11-30 16:56:00,
2013-11-30 10:01:00,59.6,42.4,27.53,North,0,1.1,1.8,53,0.00,,,0.00,WUHU216HW,2013-11-30 17:01:00,
2013-11-30 10:06:00,59.8,42.1,27.52,NW,315,0.9,1.8,52,0.00,,,0.00,WUHU216HW,2013-11-30 17:06:00,
2013-11-30 10:11:00,60.1,42.4,27.52,North,0,2.0,2.0,52,0.00,,,0.00,WUHU216HW,2013-11-30 17:11:00,
2013-11-30 10:16:00,60.3,42.6,27.52,North,0,1.1,2.0,52,0.00,,,0.00,WUHU216HW,2013-11-30 17:16:00,
2013-11-30 10:21:00,61.0,42.3,27.52,NNW,338,0.2,2.2,50,0.00,,,0.00,WUHU216HW,2013-11-30 17:21:00,
2013-11-30 10:26:00,61.6,42.2,27.52,North,0,1.3,2.5,49,0.00,,,0.00,WUHU216HW,2013-11-30 17:26:00,
2013-11-30 10:31:00,61.9,42.5,27.52,NNE,23,1.1,2.5,49,0.00,,,0.00,WUHU216HW,2013-11-30 17:31:00,
2013-11-30 10:36:00,62.5,42.4,27.51,North,0,1.6,2.7,48,0.00,,,0.00,WUHU216HW,2013-11-30 17:36:00,
2013-11-30 10:41:00,63.2,43.1,27.51,NE,45,0.9,2.9,48,0.00,,,0.00,WUHU216HW,2013-11-30 17:41:00,
2013-11-30 10:46:00,63.7,43.0,27.52,NNW,338,0.7,2.9,47,0.00,,,0.00,WUHU216HW,2013-11-30 17:46:00,
2013-11-30 10:51:00,65.0,43.6,27.51,North,0,1.3,1.8,46,0.00,,,0.00,WUHU216HW,2013-11-30 17:51:00,
2013-11-30 10:56:00,65.9,43.8,27.51,West,270,0.9,1.8,45,0.00,,,0.00,WUHU216HW,2013-11-30 17:56:00,
2013-11-30 11:01:00,66.4,43.2,27.51,North,0,0.9,2.2,43,0.00,,,0.00,WUHU216HW,2013-11-30 18:01:00,
2013-11-30 11:06:00,67.0,43.7,27.51,ENE,68,0.2,2.2,43,0.00,,,0.00,WUHU216HW,2013-11-30 18:06:00,
2013-11-30 11:11:00,68.2,45.4,27.51,NE,45,1.8,2.0,44,0.00,,,0.00,WUHU216HW,2013-11-30 18:11:00,
2013-11-30 11:16:00,69.5,45.4,27.51,North,0,0.7,1.8,42,0.00,,,0.00,WUHU216HW,2013-11-30 18:16:00,
2013-11-30 11:21:00,70.6,46.3,27.51,NNW,338,0.7,1.8,42,0.00,,,0.00,WUHU216HW,2013-11-30 18:21:00,
2013-11-30 11:26:00,71.3,46.4,27.51,West,270,0.4,1.6,41,0.00,,,0.00,WUHU216HW,2013-11-30 18:26:00,
2013-11-30 11:31:00,70.9,45.5,27.50,WNW,293,0.2,1.6,40,0.00,,,0.00,WUHU216HW,2013-11-30 18:31:00,
2013-11-30 11:36:00,70.4,44.9,27.50,WNW,293,0.0,1.1,40,0.00,,,0.00,WUHU216HW,2013-11-30 18:36:00,
2013-11-30 11:41:00,69.8,43.8,27.50,NNW,338,1.1,1.6,39,0.00,,,0.00,WUHU216HW,2013-11-30 18:41:00,
2013-11-30 11:46:00,68.8,43.5,27.50,North,0,1.6,2.5,40,0.00,,,0.00,WUHU216HW,2013-11-30 18:46:00,
2013-11-30 11:51:00,68.4,43.2,27.49,NNW,338,0.9,2.5,40,0.00,,,0.00,WUHU216HW,2013-11-30 18:51:00,
2013-11-30 11:56:00,68.6,43.9,27.49,ESE,113,0.0,2.2,41,0.00,,,0.00,WUHU216HW,2013-11-30 18:56:00,
2013-11-30 12:01:00,68.6,43.3,27.49,NNW,338,1.3,1.6,40,0.00,,,0.00,WUHU216HW,2013-11-30 19:01:00,
2013-11-30 12:06:00,68.4,43.7,27.49,North,0,1.3,1.8,41,0.00,,,0.00,WUHU216HW,2013-11-30 19:06:00,
2013-11-30 12:11:00,68.4,43.7,27.49,North,0,0.0,1.8,41,0.00,,,0.00,WUHU216HW,2013-11-30 19:11:00,
2013-11-30 12:16:00,68.8,44.1,27.48,SE,135,0.0,1.3,41,0.00,,,0.00,WUHU216HW,2013-11-30 19:16:00,
2013-11-30 12:21:00,69.3,44.6,27.48,North,0,0.0,1.1,41,0.00,,,0.00,WUHU216HW,2013-11-30 19:21:00,
2013-11-30 12:26:00,69.7,44.9,27.48,North,0,0.0,0.4,41,0.00,,,0.00,WUHU216HW,2013-11-30 19:26:00,
2013-11-30 12:31:00,69.8,43.8,27.48,North,0,0.0,1.3,39,0.00,,,0.00,WUHU216HW,2013-11-30 19:31:00,
2013-11-30 12:36:00,70.2,44.8,27.47,SW,225,1.1,1.3,40,0.00,,,0.00,WUHU216HW,2013-11-30 19:36:00,
2013-11-30 12:41:00,70.7,45.3,27.47,SE,135,0.0,1.1,40,0.00,,,0.00,WUHU216HW,2013-11-30 19:41:00,
2013-11-30 12:46:00,70.9,45.5,27.47,NW,315,1.3,1.3,40,0.00,,,0.00,WUHU216HW,2013-11-30 19:46:00,
2013-11-30 12:50:00,71.3,45.0,27.46,East,90,1.8,1.8,39,0.00,,,0.00,WUHU216HW,2013-11-30 19:50:00,
2013-11-30 12:56:00,71.6,44.7,27.46,ENE,68,0.4,1.8,38,0.00,,,0.00,WUHU216HW,2013-11-30 19:56:00,
2013-11-30 13:00:00,71.5,44.5,27.46,North,0,0.2,1.8,38,0.00,,,0.00,WUHU216HW,2013-11-30 20:00:00,
2013-11-30 13:05:00,71.3,44.3,27.46,NE,45,0.0,1.1,38,0.00,,,0.00,WUHU216HW,2013-11-30 20:05:00,
2013-11-30 13:10:00,71.5,44.5,27.46,North,0,0.4,1.3,38,0.00,,,0.00,WUHU216HW,2013-11-30 20:10:00,
2013-11-30 13:16:00,71.8,44.7,27.45,South,180,0.7,1.3,38,0.00,,,0.00,WUHU216HW,2013-11-30 20:16:00,
2013-11-30 13:21:00,72.2,45.1,27.45,NW,315,0.4,1.8,38,0.00,,,0.00,WUHU216HW,2013-11-30 20:21:00,
2013-11-30 13:26:00,72.4,45.3,27.45,SSE,158,0.0,1.8,38,0.00,,,0.00,WUHU216HW,2013-11-30 20:26:00,
2013-11-30 13:31:00,72.4,45.3,27.45,NE,45,0.0,1.8,38,0.00,,,0.00,WUHU216HW,2013-11-30 20:31:00,
2013-11-30 13:36:00,72.5,45.4,27.44,SSW,203,0.0,1.8,38,0.00,,,0.00,WUHU216HW,2013-11-30 20:36:00,
2013-11-30 13:41:00,72.7,44.8,27.44,SE,135,0.9,1.8,37,0.00,,,0.00,WUHU216HW,2013-11-30 20:41:00,
2013-11-30 13:46:00,72.5,44.6,27.44,ESE,113,0.4,1.8,37,0.00,,,0.00,WUHU216HW,2013-11-30 20:46:00,
2013-11-30 13:51:00,72.4,44.5,27.44,SSE,158,1.3,1.6,37,0.00,,,0.00,WUHU216HW,2013-11-30 20:51:00,
2013-11-30 13:56:00,72.4,44.5,27.43,SSW,203,1.1,1.8,37,0.00,,,0.00,WUHU216HW,2013-11-30 20:56:00,
2013-11-30 14:01:00,72.0,44.2,27.43,SE,135,0.2,1.8,37,0.00,,,0.00,WUHU216HW,2013-11-30 21:01:00,
2013-11-30 14:06:00,72.2,44.4,27.43,South,180,0.0,1.8,37,0.00,,,0.00,WUHU216HW,2013-11-30 21:06:00,
2013-11-30 14:11:00,72.2,45.1,27.43,SSE,158,0.4,1.8,38,0.00,,,0.00,WUHU216HW,2013-11-30 21:11:00,
2013-11-30 14:16:00,72.4,45.3,27.43,WNW,293,0.2,1.8,38,0.00,,,0.00,WUHU216HW,2013-11-30 21:16:00,
2013-11-30 14:21:00,73.1,45.9,27.42,SSE,158,2.2,2.2,38,0.00,,,0.00,WUHU216HW,2013-11-30 21:21:00,
2013-11-30 14:26:00,73.1,45.1,27.42,SSW,203,1.6,2.2,37,0.00,,,0.00,WUHU216HW,2013-11-30 21:26:00,
2013-11-30 14:31:00,73.4,45.5,27.42,SSE,158,0.9,2.2,37,0.00,,,0.00,WUHU216HW,2013-11-30 21:31:00,
2013-11-30 14:36:00,73.6,45.6,27.42,SSW,203,1.8,2.7,37,0.00,,,0.00,WUHU216HW,2013-11-30 21:36:00,
2013-11-30 14:41:00,73.8,45.7,27.42,SSE,158,3.1,3.4,37,0.00,,,0.00,WUHU216HW,2013-11-30 21:41:00,
2013-11-30 14:46:00,73.6,45.6,27.42,SSE,158,3.1,3.4,37,0.00,,,0.00,WUHU216HW,2013-11-30 21:46:00,
2013-11-30 14:51:00,73.4,43.9,27.42,SE,135,1.1,3.4,35,0.00,,,0.00,WUHU216HW,2013-11-30 21:51:00,
2013-11-30 14:56:00,73.4,45.5,27.42,SSE,158,0.2,2.5,37,0.00,,,0.00,WUHU216HW,2013-11-30 21:56:00,
2013-11-30 15:01:00,73.6,44.8,27.42,SSW,203,0.9,2.5,36,0.00,,,0.00,WUHU216HW,2013-11-30 22:01:00,
2013-11-30 15:06:00,73.8,45.0,27.42,SSE,158,0.2,3.4,36,0.00,,,0.00,WUHU216HW,2013-11-30 22:06:00,
2013-11-30 15:11:00,74.0,44.4,27.41,South,180,1.1,3.4,35,0.00,,,0.00,WUHU216HW,2013-11-30 22:11:00,
2013-11-30 15:16:00,73.6,44.1,27.42,SSE,158,0.4,2.9,35,0.00,,,0.00,WUHU216HW,2013-11-30 22:16:00,
2013-11-30 15:21:00,73.3,43.7,27.42,South,180,1.1,2.5,35,0.00,,,0.00,WUHU216HW,2013-11-30 22:21:00,
2013-11-30 15:26:00,72.9,44.2,27.42,SSW,203,1.8,2.2,36,0.00,,,0.00,WUHU216HW,2013-11-30 22:26:00,
2013-11-30 15:31:00,72.9,44.2,27.41,South,180,1.1,2.7,36,0.00,,,0.00,WUHU216HW,2013-11-30 22:31:00,
2013-11-30 15:36:00,72.4,43.7,27.42,SSW,203,1.6,2.7,36,0.00,,,0.00,WUHU216HW,2013-11-30 22:36:00,
2013-11-30 15:41:00,72.0,44.2,27.41,South,180,2.9,2.9,37,0.00,,,0.00,WUHU216HW,2013-11-30 22:41:00,
2013-11-30 15:46:00,71.6,43.8,27.41,South,180,0.7,2.9,37,0.00,,,0.00,WUHU216HW,2013-11-30 22:46:00,
2013-11-30 15:51:00,71.3,44.3,27.42,South,180,2.0,2.7,38,0.00,,,0.00,WUHU216HW,2013-11-30 22:51:00,
2013-11-30 15:56:00,70.9,43.9,27.42,SSW,203,1.8,3.1,38,0.00,,,0.00,WUHU216HW,2013-11-30 22:56:00,
2013-11-30 16:01:00,70.7,43.8,27.42,SSW,203,0.7,3.1,38,0.00,,,0.00,WUHU216HW,2013-11-30 23:01:00,
2013-11-30 16:06:00,70.6,43.7,27.42,SSW,203,0.9,3.1,38,0.00,,,0.00,WUHU216HW,2013-11-30 23:06:00,
2013-11-30 16:11:00,70.4,44.2,27.42,SSW,203,2.0,2.5,39,0.00,,,0.00,WUHU216HW,2013-11-30 23:11:00,
2013-11-30 16:16:00,70.2,44.0,27.42,SE,135,1.8,2.5,39,0.00,,,0.00,WUHU216HW,2013-11-30 23:16:00,
2013-11-30 16:21:00,69.7,43.6,27.42,SSW,203,1.1,2.7,39,0.00,,,0.00,WUHU216HW,2013-11-30 23:21:00,
2013-11-30 16:26:00,69.1,43.1,27.43,SE,135,1.1,2.7,39,0.00,,,0.00,WUHU216HW,2013-11-30 23:26:00,
2013-11-30 16:31:00,68.8,43.5,27.42,SE,135,0.7,2.5,40,0.00,,,0.00,WUHU216HW,2013-11-30 23:31:00,
2013-11-30 16:36:00,68.4,43.2,27.43,SE,135,0.9,1.8,40,0.00,,,0.00,WUHU216HW,2013-11-30 23:36:00,
2013-11-30 16:41:00,68.2,43.0,27.43,South,180,1.1,1.8,40,0.00,,,0.00,WUHU216HW,2013-11-30 23:41:00,
2013-11-30 16:46:00,68.0,42.1,27.43,SSE,158,0.7,1.8,39,0.00,,,0.00,WUHU216HW,2013-11-30 23:46:00,
2013-11-30 16:51:00,67.7,42.5,27.43,ESE,113,0.7,1.8,40,0.00,,,0.00,WUHU216HW,2013-11-30 23:51:00,
2013-11-30 16:56:00,67.5,42.4,27.43,SE,135,1.1,2.0,40,0.00,,,0.00,WUHU216HW,2013-11-30 23:56:00,
2013-11-30 17:01:00,67.3,42.2,27.43,ESE,113,1.6,2.0,40,0.00,,,0.00,WUHU216HW,2013-12-01 00:01:00,
2013-11-30 17:06:00,67.1,42.0,27.43,SE,135,0.4,1.8,40,0.00,,,0.00,WUHU216HW,2013-12-01 00:06:00,
2013-11-30 17:11:00,67.0,41.9,27.43,SE,135,0.4,1.6,40,0.00,,,0.00,WUHU216HW,2013-12-01 00:11:00,
2013-11-30 17:16:00,66.8,42.3,27.43,SE,135,1.1,1.6,41,0.00,,,0.00,WUHU216HW,2013-12-01 00:16:00,
2013-11-30 17:21:00,66.6,42.1,27.44,SE,135,0.0,1.6,41,0.00,,,0.00,WUHU216HW,2013-12-01 00:21:00,
2013-11-30 17:26:00,66.2,42.4,27.43,SSE,158,0.0,1.1,42,0.00,,,0.00,WUHU216HW,2013-12-01 00:26:00,
2013-11-30 17:31:00,66.1,42.2,27.43,SE,135,0.4,1.3,42,0.00,,,0.00,WUHU216HW,2013-12-01 00:31:00,
2013-11-30 17:36:00,65.9,42.7,27.43,SE,135,0.4,1.3,43,0.00,,,0.00,WUHU216HW,2013-12-01 00:36:00,
2013-11-30 17:41:00,65.7,42.5,27.44,South,180,1.8,1.8,43,0.00,,,0.00,WUHU216HW,2013-12-01 00:41:00,
2013-11-30 17:46:00,65.5,42.9,27.44,SE,135,0.2,1.8,44,0.00,,,0.00,WUHU216HW,2013-12-01 00:46:00,
2013-11-30 17:51:00,65.2,43.2,27.44,SSE,158,2.0,2.2,45,0.00,,,0.00,WUHU216HW,2013-12-01 00:51:00,
2013-11-30 17:56:00,65.0,43.6,27.44,SSE,158,0.4,2.2,46,0.00,,,0.00,WUHU216HW,2013-12-01 00:56:00,
2013-11-30 18:01:00,64.6,43.2,27.44,SSE,158,0.9,2.2,46,0.00,,,0.00,WUHU216HW,2013-12-01 01:01:00,
2013-11-30 18:06:00,64.4,43.7,27.44,SW,225,1.1,2.2,47,0.00,,,0.00,WUHU216HW,2013-12-01 01:06:00,
2013-11-30 18:11:00,64.1,43.9,27.44,South,180,1.8,3.4,48,0.00,,,0.00,WUHU216HW,2013-12-01 01:11:00,
2013-11-30 18:16:00,63.7,43.6,27.45,SSE,158,1.8,4.0,48,0.00,,,0.00,WUHU216HW,2013-12-01 01:16:00,
2013-11-30 18:21:00,63.4,43.2,27.45,South,180,3.6,4.0,48,0.00,,,0.00,WUHU216HW,2013-12-01 01:21:00,
2013-11-30 18:26:00,63.0,42.9,27.45,SE,135,1.3,4.3,48,0.00,,,0.00,WUHU216HW,2013-12-01 01:26:00,
2013-11-30 18:31:00,62.6,43.2,27.46,SE,135,1.8,4.3,49,0.00,,,0.00,WUHU216HW,2013-12-01 01:31:00,
2013-11-30 18:36:00,62.3,42.8,27.46,SSE,158,0.4,2.9,49,0.00,,,0.00,WUHU216HW,2013-12-01 01:36:00,
2013-11-30 18:41:00,62.3,42.8,27.46,South,180,1.1,2.5,49,0.00,,,0.00,WUHU216HW,2013-12-01 01:41:00,
2013-11-30 18:43:00,62.1,43.3,27.46,SSE,158,1.3,2.2,50,0.00,,,0.00,WUHU216HW,2013-12-01 01:43:00,
2013-11-30 18:48:00,61.9,43.1,27.46,SSW,203,0.4,2.2,50,0.00,,,0.00,WUHU216HW,2013-12-01 01:48:00,
2013-11-30 18:53:00,61.9,43.1,27.46,South,180,0.2,1.8,50,0.00,,,0.00,WUHU216HW,2013-12-01 01:53:00,
2013-11-30 18:58:00,61.7,43.4,27.45,SSE,158,0.4,1.3,51,0.00,,,0.00,WUHU216HW,2013-12-01 01:58:00,
2013-11-30 19:03:00,61.6,43.3,27.45,SSE,158,0.7,1.1,51,0.00,,,0.00,WUHU216HW,2013-12-01 02:03:00,
2013-11-30 19:08:00,61.4,43.1,27.46,SSE,158,0.2,1.6,51,0.00,,,0.00,WUHU216HW,2013-12-01 02:08:00,
2013-11-30 19:13:00,61.2,43.4,27.46,SSE,158,0.2,1.6,52,0.00,,,0.00,WUHU216HW,2013-12-01 02:13:00,
2013-11-30 19:18:00,60.8,43.1,27.46,SE,135,0.0,1.1,52,0.00,,,0.00,WUHU216HW,2013-12-01 02:18:00,
2013-11-30 19:23:00,60.7,43.4,27.47,SE,135,0.4,1.1,53,0.00,,,0.00,WUHU216HW,2013-12-01 02:23:00,
2013-11-30 19:28:00,60.3,43.1,27.47,SE,135,0.0,0.7,53,0.00,,,0.00,WUHU216HW,2013-12-01 02:28:00,
2013-11-30 19:33:00,60.1,42.9,27.47,SE,135,0.0,0.7,53,0.00,,,0.00,WUHU216HW,2013-12-01 02:33:00,
2013-11-30 19:38:00,59.9,42.8,27.47,SE,135,0.2,1.1,53,0.00,,,0.00,WUHU216HW,2013-12-01 02:38:00,
2013-11-30 19:43:00,59.9,42.8,27.47,SSE,158,0.9,1.3,53,0.00,,,0.00,WUHU216HW,2013-12-01 02:43:00,
2013-11-30 19:48:00,59.8,43.0,27.47,SSE,158,0.0,1.3,54,0.00,,,0.00,WUHU216HW,2013-12-01 02:48:00,
2013-11-30 19:53:00,59.6,42.8,27.47,SSE,158,0.0,1.1,54,0.00,,,0.00,WUHU216HW,2013-12-01 02:53:00,
2013-11-30 19:58:00,59.4,42.8,27.47,SSE,158,0.0,0.4,54,0.00,,,0.00,WUHU216HW,2013-12-01 02:58:00,
2013-11-30 20:03:00,59.4,42.8,27.47,SSE,158,0.0,0.4,54,0.00,,,0.00,WUHU216HW,2013-12-01 03:03:00,
2013-11-30 20:08:00,59.4,42.8,27.47,SSE,158,0.0,0.4,54,0.00,,,0.00,WUHU216HW,2013-12-01 03:08:00,
2013-11-30 20:12:00,59.2,43.0,27.47,SSE,158,0.9,0.9,55,0.00,,,0.00,WUHU216HW,2013-12-01 03:12:00,
2013-11-30 20:18:00,59.0,42.8,27.48,SSE,158,0.0,0.9,55,0.00,,,0.00,WUHU216HW,2013-12-01 03:18:00,
2013-11-30 20:22:00,59.0,43.3,27.48,SSE,158,0.4,0.9,56,0.00,,,0.00,WUHU216HW,2013-12-01 03:22:00,
2013-11-30 20:27:00,58.7,43.0,27.48,South,180,0.0,0.9,56,0.00,,,0.00,WUHU216HW,2013-12-01 03:27:00,
2013-11-30 20:32:00,58.7,43.0,27.48,South,180,0.0,0.4,56,0.00,,,0.00,WUHU216HW,2013-12-01 03:32:00,
2013-11-30 20:37:00,58.5,43.3,27.48,South,180,0.0,0.7,57,0.00,,,0.00,WUHU216HW,2013-12-01 03:37:00,
2013-11-30 20:42:00,58.3,43.1,27.48,South,180,0.0,0.7,57,0.00,,,0.00,WUHU216HW,2013-12-01 03:42:00,
2013-11-30 20:47:00,58.1,42.9,27.48,South,180,0.0,0.0,57,0.00,,,0.00,WUHU216HW,2013-12-01 03:47:00,
2013-11-30 20:52:00,58.0,42.9,27.48,South,180,0.0,0.0,57,0.00,,,0.00,WUHU216HW,2013-12-01 03:52:00,
2013-11-30 20:57:00,58.0,43.3,27.48,South,180,0.0,0.0,58,0.00,,,0.00,WUHU216HW,2013-12-01 03:57:00,
2013-11-30 21:02:00,57.8,43.1,27.48,South,180,0.0,0.4,58,0.00,,,0.00,WUHU216HW,2013-12-01 04:02:00,
2013-11-30 21:07:00,57.6,42.9,27.48,South,180,0.0,0.4,58,0.00,,,0.00,WUHU216HW,2013-12-01 04:07:00,
2013-11-30 21:12:00,57.4,42.8,27.49,South,180,0.7,0.7,58,0.00,,,0.00,WUHU216HW,2013-12-01 04:12:00,
2013-11-30 21:17:00,57.2,42.7,27.49,SSW,203,0.0,1.1,58,0.00,,,0.00,WUHU216HW,2013-12-01 04:17:00,
2013-11-30 21:22:00,57.2,43.1,27.49,SSW,203,0.0,1.1,59,0.00,,,0.00,WUHU216HW,2013-12-01 04:22:00,
2013-11-30 21:27:00,56.9,42.8,27.49,SSW,203,0.0,0.0,59,0.00,,,0.00,WUHU216HW,2013-12-01 04:27:00,
2013-11-30 21:32:00,56.7,42.6,27.49,SSW,203,0.0,0.0,59,0.00,,,0.00,WUHU216HW,2013-12-01 04:32:00,
2013-11-30 21:37:00,56.5,42.8,27.49,SSW,203,0.0,0.0,60,0.00,,,0.00,WUHU216HW,2013-12-01 04:37:00,
2013-11-30 21:42:00,56.5,43.2,27.50,SSW,203,0.0,0.0,61,0.00,,,0.00,WUHU216HW,2013-12-01 04:42:00,
2013-11-30 21:47:00,56.3,43.0,27.50,SSW,203,0.0,0.0,61,0.00,,,0.00,WUHU216HW,2013-12-01 04:47:00,
2013-11-30 21:52:00,56.3,43.0,27.50,SSW,203,0.0,0.0,61,0.00,,,0.00,WUHU216HW,2013-12-01 04:52:00,
2013-11-30 21:57:00,56.2,42.9,27.50,SSW,203,0.0,0.0,61,0.00,,,0.00,WUHU216HW,2013-12-01 04:57:00,
2013-11-30 22:01:00,56.0,42.8,27.49,SSW,203,0.0,0.0,61,0.00,,,0.00,WUHU216HW,2013-12-01 05:01:00,
2013-11-30 22:02:00,56.0,42.8,27.49,SSW,203,0.0,0.0,61,0.00,,,0.00,WUHU216HW,2013-12-01 05:02:00,
2013-11-30 22:07:00,55.8,42.9,27.50,SSW,203,0.0,0.0,62,0.00,,,0.00,WUHU216HW,2013-12-01 05:07:00,
2013-11-30 22:12:00,55.6,42.8,27.50,SSW,203,0.0,0.0,62,0.00,,,0.00,WUHU216HW,2013-12-01 05:12:00,
2013-11-30 22:17:00,55.4,43.0,27.50,SSW,203,0.0,0.0,63,0.00,,,0.00,WUHU216HW,2013-12-01 05:17:00,
2013-11-30 22:22:00,55.4,43.0,27.50,SSW,203,0.0,0.0,63,0.00,,,0.00,WUHU216HW,2013-12-01 05:22:00,
2013-11-30 22:27:00,55.3,42.9,27.50,SSW,203,0.0,0.0,63,0.00,,,0.00,WUHU216HW,2013-12-01 05:27:00,
2013-11-30 22:32:00,55.1,42.7,27.51,SSW,203,0.0,0.0,63,0.00,,,0.00,WUHU216HW,2013-12-01 05:32:00,
2013-11-30 22:37:00,55.1,42.7,27.50,SSW,203,0.0,0.0,63,0.00,,,0.00,WUHU216HW,2013-12-01 05:37:00,
2013-11-30 22:42:00,54.7,42.8,27.50,SSW,203,0.0,0.0,64,0.00,,,0.00,WUHU216HW,2013-12-01 05:42:00,
2013-11-30 22:47:00,54.7,42.8,27.51,SSW,203,0.0,0.0,64,0.00,,,0.00,WUHU216HW,2013-12-01 05:47:00,
2013-11-30 22:52:00,54.5,42.6,27.51,SSW,203,0.0,0.0,64,0.00,,,0.00,WUHU216HW,2013-12-01 05:52:00,
2013-11-30 22:57:00,54.5,42.6,27.51,SSW,203,0.0,0.0,64,0.00,,,0.00,WUHU216HW,2013-12-01 05:57:00,
2013-11-30 23:02:00,54.4,42.4,27.51,SSW,203,0.0,0.0,64,0.00,,,0.00,WUHU216HW,2013-12-01 06:02:00,
2013-11-30 23:07:00,54.4,42.4,27.51,SSW,203,0.0,0.0,64,0.00,,,0.00,WUHU216HW,2013-12-01 06:07:00,
2013-11-30 23:12:00,54.4,42.4,27.51,SSW,203,0.0,0.0,64,0.00,,,0.00,WUHU216HW,2013-12-01 06:12:00,
2013-11-30 23:17:00,54.2,42.2,27.51,SSW,203,0.0,0.0,64,0.00,,,0.00,WUHU216HW,2013-12-01 06:17:00,
2013-11-30 23:22:00,54.0,42.5,27.51,SSW,203,0.0,0.0,65,0.00,,,0.00,WUHU216HW,2013-12-01 06:22:00,
2013-11-30 23:27:00,54.0,42.5,27.51,SSW,203,0.0,0.0,65,0.00,,,0.00,WUHU216HW,2013-12-01 06:27:00,
2013-11-30 23:32:00,53.8,42.3,27.51,SSW,203,0.0,0.0,65,0.00,,,0.00,WUHU216HW,2013-12-01 06:32:00,
2013-11-30 23:37:00,53.8,42.3,27.51,SSW,203,0.0,0.0,65,0.00,,,0.00,WUHU216HW,2013-12-01 06:37:00,
2013-11-30 23:42:00,53.6,42.1,27.51,SSW,203,0.0,0.0,65,0.00,,,0.00,WUHU216HW,2013-12-01 06:42:00,
2013-11-30 23:47:00,53.6,42.5,27.50,SSW,203,0.0,0.0,66,0.00,,,0.00,WUHU216HW,2013-12-01 06:47:00,
2013-11-30 23:52:00,53.6,42.5,27.51,SSW,203,0.0,0.0,66,0.00,,,0.00,WUHU216HW,2013-12-01 06:52:00,
2013-11-30 23:57:00,53.6,42.5,27.51,South,180,0.0,0.2,66,0.00,,,0.00,WUHU216HW,2013-12-01 06:57:00,